Regional Weather Roundup
Issued by NWS

Home | Current Version | Previous Version | Graphics & Text | Print | Product List | Glossary On
Versions: 1 2 3 4 5 6 7 8 9 10 11 12 13 14 15 16 17 18 19 20 21 22 23 24 25 26 27 28 29 30 31 32 33 34 35 36 37 38 39 40 41 42 43 44 45 46 47 48 49 50
000
ASUS43 KLOT 161758
RWRIL

ILLINOIS REGIONAL WEATHER ROUNDUP
NATIONAL WEATHER SERVICE CHICAGO/ROMEOVILLE IL
100 PM CDT WED APR 16 2014

NOTE: "FAIR" INDICATES FEW OR NO CLOUDS BELOW 12,000 FEET WITH NO
SIGNIFICANT WEATHER AND/OR OBSTRUCTIONS TO VISIBILITY.

* THESE STATIONS ARE NOT UNDER NWS QUALITY CONTROL. THEY ALSO MAY NOT
  REPORT WEATHER SUCH AS PRECIPITATION OR FOG.

ILZ001-002-007-009-015-016-024-161900-
NORTHWEST ILLINOIS

CITY           SKY/WX    TMP DP  RH WIND       PRES   REMARKS
MOLINE         FAIR      55  26  32 S23G32    30.08F
6HR MIN TEMP:  35; 6HR MAX TEMP:  55;

$$

ILZ003-004-008-010-011-017-018-161900-
NORTH CENTRAL ILLINOIS

CITY           SKY/WX    TMP DP  RH WIND       PRES   REMARKS
ROCKFORD       NOT AVBL
$$

ILZ005-006-012>014-019>023-161900-
NORTHEAST ILLINOIS

CITY           SKY/WX    TMP DP  RH WIND       PRES   REMARKS
CHICAGO-OHARE  CLOUDY    48  25  40 S21G30    30.23F
6HR MIN TEMP:  31; 6HR MAX TEMP:  48;

CHICAGO-MIDWAY PTSUNNY   48  25  40 S16G29    30.25F
6HR MIN TEMP:  32; 6HR MAX TEMP:  48;

AURORA         PTSUNNY   48  28  46 S26G33    30.21F
6HR MIN TEMP:  30; 6HR MAX TEMP:  48;

WAUKEGAN       CLOUDY    41  28  60 SE21G28   30.23F
6HR MIN TEMP:  31; 6HR MAX TEMP:  42;

DUPAGE AIRPORT MOSUNNY   49  27  42 S22G28    30.22F
6HR MIN TEMP:  30; 6HR MAX TEMP:  49;

WHEELING       PTSUNNY   48  27  44 SE17      30.24F
6HR MIN TEMP:  31; 6HR MAX TEMP:  48;

NORTHERLY ISL    N/A     44  30  58 SE21        N/A
$$

LMZ740>746-161900-
SOUTHERN LAKE MICHIGAN

STATION/POSITION SKY/WX   TEMP    WIND        PRES    VSBY  WAVE
                          AIR SEA DIR/SP/G                  HT/PER
                          (F)     (DEG/KT/KT) (MB)    (MI)  (FT/S)
WAUKEGAN HARBOR            40     150/ 21/ 25 1025.7F
HARRISON CRIB              40     160/ 21/ 27   N/A
BURNHAM HARBOR             44     130/ 21/ 21   N/A
CALUMET HARBOR             43     130/ 12/ 21 1026.0F
MICHIGAN CITY              42     160/ 14/ 20   N/A
$$

ILZ025>027-034>036-040-047-049-050-058-095>099-161900-
WEST-CENTRAL ILLINOIS

CITY           SKY/WX    TMP DP  RH WIND       PRES   REMARKS
$$

ILZ028>032-037-038-041>044-048-051>054-059>061-161900-
CENTRAL ILLINOIS

CITY           SKY/WX    TMP DP  RH WIND       PRES   REMARKS
PEORIA         NOT AVBL
SPRINGFIELD    FAIR      54  28  36 SE24G31   30.21F
6HR MIN TEMP:  36; 6HR MAX TEMP:  54;

TAYLORVILLE    NOT AVBL
$$

ILZ033-039-045-046-055>057-062-063-161900-
EAST-CENTRAL ILLINOIS

CITY           SKY/WX    TMP DP  RH WIND       PRES   REMARKS
CHAMPAIGN      SUNNY     50  29  44 SE17G26   30.26F
MATTOON        FAIR      49  28  44 SE14G23   30.26F
$$

ILZ079-100>102-161900-
SOUTHWEST ILLINOIS

CITY           SKY/WX    TMP DP  RH WIND       PRES   REMARKS
CAHOKIA*       FAIR      52  30  43 S18G28    30.22F
$$

ILZ064>066-069>071-074>076-080>082-084>086-088>090-092>094-161900-
SOUTH-CENTRAL ILLINOIS

CITY           SKY/WX    TMP DP  RH WIND       PRES   REMARKS
CARBONDALE     PTSUNNY   52  27  38 SE12      30.26F
6HR MIN TEMP:  35; 6HR MAX TEMP:  52;

MARION         PTSUNNY   54  28  37 SE12      30.27F
$$

ILZ067-068-072-073-078-083-087-091-161900-
SOUTHEAST ILLINOIS

CITY           SKY/WX    TMP DP  RH WIND       PRES   REMARKS
$$

ABBREVIATIONS USED IN REMARKS
   TC - TEMPERATURE IN CELSIUS
  WCI - WIND CHILL INDEX
   HX - HEAT INDEX
  VSB - VISIBILITY
$$




USA.gov is the U.S. government's official web portal to all federal, state and local government web resources and services.